This is the latest recevied weather packets stored in our database for station/object DH2PG-6. If no packets are shown the sender has not sent any weather packets the latest 10 day(s).
| Time | Temp. | Humidity | Pressure | Rain* | Wind** | Luminosity | Snow |
|---|---|---|---|---|---|---|---|
| 1788184515 | 18.89° C | 72% | 1011.8 hPa | 0 mm | - | - | - |
| 1788184215 | 18.89° C | 71% | 1011.8 hPa | 0 mm | - | - | - |
| 1788183914 | 18.89° C | 72% | 1011.6 hPa | 0 mm | - | - | - |
| 1788183314 | 18.33° C | 75% | 1011.5 hPa | 0 mm | - | - | - |
| 1788183013 | 17.78° C | 76% | 1011.6 hPa | 0 mm | - | - | - |
| 1788182427 | 17.78° C | 76% | 1011.5 hPa | 0 mm | - | - | - |
| 1788182113 | 17.78° C | 76% | 1011.4 hPa | 0 mm | - | - | - |
| 1788181812 | 18.33° C | 75% | 1011.3 hPa | 0 mm | - | - | - |
| 1788181512 | 18.33° C | 71% | 1011.4 hPa | 0 mm | - | - | - |
| 1788181212 | 18.33° C | 70% | 1011.3 hPa | 0 mm | - | - | - |
| 1788180925 | 18.89° C | 69% | 1011.3 hPa | 0 mm | - | - | - |
| 1788180311 | 20° C | 69% | 1011 hPa | 0 mm | - | - | - |
| 1788180011 | 20° C | 69% | 1011.1 hPa | 0 mm | - | - | - |
| 1788179710 | 20° C | 69% | 1011.1 hPa | 0 mm | - | - | - |
| 1788179410 | 20.56° C | 68% | 1011 hPa | 0 mm | - | - | - |
| 1788179110 | 21.11° C | 68% | 1011 hPa | 0 mm | - | - | - |
| 1788178810 | 21.11° C | 69% | 1011 hPa | 0 mm | - | - | - |
| 1788178509 | 21.11° C | 70% | 1010.9 hPa | 0 mm | - | - | - |
| 1788178209 | 21.11° C | 71% | 1010.9 hPa | 0 mm | - | - | - |
| 1788177909 | 20.56° C | 72% | 1010.7 hPa | 0 mm | - | - | - |
| 1788177608 | 20.56° C | 72% | 1010.6 hPa | 0 mm | - | - | - |
| 1788177308 | 20° C | 71% | 1010.5 hPa | 0 mm | - | - | - |
| 1788177008 | 20° C | 71% | 1010.6 hPa | 0 mm | - | - | - |
| 1788176708 | 20° C | 73% | 1010.8 hPa | 0 mm | - | - | - |
| 1788176407 | 20° C | 73% | 1010.9 hPa | 0 mm | - | - | - |
* Rain latest hour (hover to see other rain measurements)
** Current wind speed in m/s (hover to see current wind gust speed)